Tracking 18852 objects as of 24-Nov-2017
HD Live streaming from Space Station
objects crossing your sky now

ORBCOMM FM 7

Track ORBCOMM FM 7 now!
10-day predictions
ORBCOMM FM 7 is classified as:


NORAD ID: 25119
Int'l Code: 1997-084H
Perigee: 766.6 km
Apogee: 773.7 km
Inclination: 45.0 °
Period: 100.1 minutes
Semi major axis: 7141 km
RCS: 0.4683 m2 (medium)
Launch date: December 23, 1997
Source: ORBCOMM (ORB)
Launch site: Pegasus launched from Eastern Range Air Space (ERAS)
aabbcc
Your satellite tracking list
Your tracking list is empty




NASA's NSSDC Master Catalog

Two Line Element Set (TLE):
1 25119U 97084H   17327.61842071 +.00000169 +00000-0 +10078-3 0  9990
2 25119 045.0151 191.8792 0004939 013.1278 346.9698 14.38643311043242
Source of the keplerian elements: AFSPC